Location: Unspecified
(0.0000°N, 0.0000°E)
Time: 18:41:52
(UTC+00:00)

Vanguard 1 Rocket - Visible Passes

Search period start: 26 May 2022 00:00
Search period end: 05 June 2022 00:00
Orbit: 652 x 4223 km, 34.3° (Epoch: 25 May)

Date Brightness Start Highest point End Pass type
(mag) Time Alt. Az. Time Alt. Az. Time Alt. Az.
26 May 9.9 02:31:34 16° NE 02:31:34 16° NE 02:33:06 10° NE visible
26 May 10.0 04:52:08 10° NNW 04:54:53 12° NNW 04:58:08 10° N visible
27 May 9.4 03:41:32 16° NNW 03:41:59 16° NNW 03:46:31 10° NNE visible
28 May 10.0 02:34:14 13° NNE 02:34:14 13° NNE 02:35:11 10° NNE visible
04 Jun 10.2 19:17:52 10° S 19:21:03 11° S 19:23:49 10° SSE visible
